When you browse on this site, cookies collect data to enhance your experience and personalize the content and advertising you see.
Visit our Privacy Policy to learn more. By continuing to use the site, you agree to this use of cookies and data.
  • In Romania
  • List of Countries
  • For 7 days
  • Water Temperature
  • Weather Map
  • Weather Widgets
  • user-avatar
    Login

    Hourly Weather Edinburgh

    Today, 21 October, Monday

    Time Temperature Precipitation Wind Pressure Humidity
    00:00 +5°C° 0 mm 1 mps 765 mmHg 85%
    01:00 +5°C° 0 mm 1 mps 765 mmHg 86%
    02:00 +4°C° 0 mm 1 mps 765 mmHg 87%
    03:00 +4°C° 0 mm 1 mps 765 mmHg 87%
    04:00 +4°C° 0 mm 1 mps 765 mmHg 87%
    05:00 +4°C° 0 mm 1 mps 765 mmHg 87%
    06:00 +4°C° 0 mm 1 mps 765 mmHg 87%
    07:00 +4°C° 0 mm 1 mps 765 mmHg 85%
    08:00 +5°C° 0 mm 1 mps 765 mmHg 82%
    09:00 +6°C° 0 mm 1 mps 765 mmHg 80%
    10:00 +7°C° 0 mm 1 mps 765 mmHg 76%
    11:00 +8°C° 0 mm 2 mps 765 mmHg 73%
    12:00 +9°C° 0 mm 2 mps 765 mmHg 70%
    13:00 +9°C° 0 mm 3 mps 765 mmHg 71%
    14:00 +9°C° 0 mm 3 mps 764 mmHg 72%
    15:00 +9°C° 0 mm 3 mps 763 mmHg 74%
    16:00 +8°C° 0 mm 3 mps 763 mmHg 77%
    17:00 +7°C° 0 mm 3 mps 763 mmHg 80%
    18:00 +5°C° 0 mm 3 mps 763 mmHg 83%
    19:00 +5°C° 0 mm 3 mps 763 mmHg 84%
    20:00 +5°C° 0 mm 3 mps 762 mmHg 85%
    21:00 +5°C° 0 mm 3 mps 762 mmHg 86%
    22:00 +5°C° 0 mm 3 mps 762 mmHg 85%
    23:00 +7°C° 0 mm 3 mps 762 mmHg 84%

    Tomorrow, 22 October, Tuesday

    Time Temperature Precipitation Wind Pressure Humidity
    00:00 +6°C° 0 mm 4 mps 762 mmHg 83%
    01:00 +7°C° 0 mm 4 mps 761 mmHg 84%
    02:00 +7°C° 0 mm 4 mps 761 mmHg 85%
    03:00 +7°C° 0 mm 5 mps 760 mmHg 86%
    04:00 +7°C° 0 mm 5 mps 760 mmHg 86%
    05:00 +7°C° 0 mm 5 mps 760 mmHg 86%
    06:00 +7°C° 0 mm 5 mps 760 mmHg 86%
    07:00 +7°C° 0 mm 5 mps 760 mmHg 85%
    08:00 +8°C° 0 mm 5 mps 760 mmHg 84%
    09:00 +8°C° 0 mm 5 mps 760 mmHg 83%
    10:00 +8°C° 0 mm 5 mps 760 mmHg 83%
    11:00 +9°C° 0 mm 6 mps 760 mmHg 82%
    12:00 +9°C° 0 mm 6 mps 760 mmHg 81%
    13:00 +9°C° 0 mm 6 mps 760 mmHg 82%
    14:00 +9°C° 0 mm 6 mps 759 mmHg 82%
    15:00 +9°C° 0 mm 6 mps 759 mmHg 83%
    16:00 +9°C° 0 mm 6 mps 759 mmHg 82%
    17:00 +8°C° 0 mm 5 mps 759 mmHg 82%
    18:00 +8°C° 0 mm 5 mps 759 mmHg 82%
    19:00 +8°C° 0 mm 5 mps 759 mmHg 82%
    20:00 +8°C° 0 mm 5 mps 758 mmHg 83%
    21:00 +8°C° 0 mm 5 mps 758 mmHg 83%
    22:00 +8°C° 0 mm 5 mps 758 mmHg 83%
    23:00 +8°C° 0 mm 5 mps 758 mmHg 83%

    Day after tomorrow, 23 October, Wednesday

    Time Temperature Precipitation Wind Pressure Humidity
    00:00 +8°C° 0 mm 5 mps 757 mmHg 83%
    01:00 +8°C° 0 mm 5 mps 757 mmHg 83%
    02:00 +8°C° 0 mm 5 mps 756 mmHg 83%
    03:00 +8°C° 0 mm 5 mps 756 mmHg 84%
    04:00 +8°C° 0 mm 5 mps 755 mmHg 84%
    05:00 +8°C° 0 mm 5 mps 755 mmHg 84%
    06:00 +8°C° 0 mm 5 mps 755 mmHg 85%
    07:00 +9°C° 0 mm 5 mps 754 mmHg 83%
    08:00 +9°C° 0 mm 5 mps 754 mmHg 82%
    09:00 +9°C° 0 mm 6 mps 753 mmHg 81%
    10:00 +10°C° 0 mm 6 mps 753 mmHg 79%
    11:00 +10°C° 0 mm 6 mps 752 mmHg 78%
    12:00 +10°C° 0 mm 7 mps 752 mmHg 77%
    13:00 +10°C° 0.1 mm 7 mps 751 mmHg 78%
    14:00 +10°C° 0.1 mm 7 mps 750 mmHg 79%
    15:00 +10°C° 0.1 mm 7 mps 749 mmHg 80%
    16:00 +10°C° 0.7 mm 7 mps 749 mmHg 83%
    17:00 +10°C° 0.7 mm 7 mps 748 mmHg 86%
    18:00 +9°C° 0.7 mm 7 mps 748 mmHg 88%
    19:00 +9°C° 1.1 mm 7 mps 748 mmHg 90%
    20:00 +10°C° 1.1 mm 7 mps 748 mmHg 91%
    21:00 +10°C° 1.1 mm 6 mps 748 mmHg 92%
    22:00 +10°C° 1.2 mm 5 mps 747 mmHg 92%
    23:00 +10°C° 1.2 mm 4 mps 747 mmHg 91%

    24 October, Thursday

    Time Temperature Precipitation Wind Pressure Humidity
    00:00 +10°C° 1.2 mm 3 mps 747 mmHg 91%
    01:00 +9°C° 0 mm 3 mps 747 mmHg 91%
    02:00 +9°C° 0 mm 3 mps 747 mmHg 91%
    03:00 +8°C° 0 mm 3 mps 746 mmHg 92%
    04:00 +8°C° 0 mm 3 mps 746 mmHg 92%
    05:00 +8°C° 0 mm 3 mps 746 mmHg 92%
    06:00 +7°C° 0 mm 3 mps 746 mmHg 93%
    07:00 +8°C° 0 mm 3 mps 746 mmHg 91%
    08:00 +7°C° 0 mm 4 mps 746 mmHg 90%
    09:00 +8°C° 0 mm 4 mps 746 mmHg 89%
    10:00 +8°C° 0.4 mm 5 mps 746 mmHg 87%
    11:00 +9°C° 0.4 mm 5 mps 746 mmHg 85%
    12:00 +9°C° 0.4 mm 6 mps 746 mmHg 83%
    13:00 +9°C° 0.3 mm 6 mps 746 mmHg 81%
    14:00 +9°C° 0.3 mm 6 mps 745 mmHg 79%
    15:00 +9°C° 0.3 mm 7 mps 745 mmHg 77%
    16:00 +8°C° 0.2 mm 6 mps 745 mmHg 78%
    17:00 +7°C° 0.2 mm 6 mps 745 mmHg 79%
    18:00 +5°C° 0.2 mm 6 mps 745 mmHg 80%
    19:00 +7°C° 0.3 mm 6 mps 745 mmHg 81%
    20:00 +6°C° 0.3 mm 7 mps 746 mmHg 83%
    21:00 +6°C° 0.3 mm 7 mps 746 mmHg 84%
    22:00 +6°C° 0.2 mm 7 mps 747 mmHg 85%
    23:00 +7°C° 0.2 mm 6 mps 747 mmHg 85%

    25 October, Friday

    Time Temperature Precipitation Wind Pressure Humidity
    00:00 +7°C° 0.2 mm 6 mps 747 mmHg 86%
    01:00 +6°C° 0.1 mm 5 mps 748 mmHg 85%
    02:00 +5°C° 0.1 mm 4 mps 749 mmHg 85%
    03:00 +5°C° 0.1 mm 4 mps 751 mmHg 85%
    04:00 +5°C° 0 mm 3 mps 751 mmHg 86%
    05:00 +4°C° 0 mm 3 mps 752 mmHg 88%
    06:00 +4°C° 0 mm 3 mps 753 mmHg 89%
    07:00 +4°C° 0.1 mm 3 mps 754 mmHg 86%
    08:00 +5°C° 0.1 mm 3 mps 754 mmHg 83%
    09:00 +5°C° 0.1 mm 4 mps 755 mmHg 80%
    10:00 +5°C° 0 mm 4 mps 755 mmHg 76%
    11:00 +7°C° 0 mm 3 mps 755 mmHg 72%
    12:00 +7°C° 0 mm 3 mps 756 mmHg 69%
    13:00 +5°C° 0.3 mm 3 mps 755 mmHg 75%
    14:00 +5°C° 0.3 mm 2 mps 754 mmHg 82%
    15:00 +6°C° 0.3 mm 1 mps 753 mmHg 89%
    16:00 +5°C° 1.7 mm 1 mps 752 mmHg 91%
    17:00 +4°C° 1.7 mm 1 mps 751 mmHg 94%
    18:00 +4°C° 1.7 mm 1 mps 750 mmHg 97%
    19:00 +4°C° 0.7 mm 1 mps 750 mmHg 97%
    20:00 +4°C° 0.7 mm 1 mps 750 mmHg 96%
    21:00 +4°C° 0.7 mm 1 mps 750 mmHg 96%
    22:00 +4°C° 0.1 mm 1 mps 750 mmHg 95%
    23:00 +3°C° 0.1 mm 2 mps 751 mmHg 95%

    26 October, Saturday

    Time Temperature Precipitation Wind Pressure Humidity
    00:00 +3°C° 0.1 mm 2 mps 751 mmHg 94%
    01:00 +2°C° 0 mm 3 mps 751 mmHg 93%
    02:00 +2°C° 0 mm 3 mps 751 mmHg 92%
    03:00 +2°C° 0 mm 3 mps 751 mmHg 90%
    04:00 +1°C° 0.1 mm 4 mps 751 mmHg 89%
    05:00 +3°C° 0.1 mm 4 mps 751 mmHg 87%
    06:00 +2°C° 0.1 mm 5 mps 751 mmHg 86%
    07:00 +3°C° 0 mm 5 mps 752 mmHg 84%
    08:00 +3°C° 0 mm 5 mps 752 mmHg 83%
    09:00 +4°C° 0 mm 6 mps 752 mmHg 81%
    10:00 +4°C° 0.3 mm 6 mps 753 mmHg 83%
    11:00 +5°C° 0.3 mm 6 mps 753 mmHg 84%
    12:00 +5°C° 0.3 mm 7 mps 754 mmHg 86%
    13:00 +5°C° 0.2 mm 6 mps 754 mmHg 83%
    14:00 +7°C° 0.2 mm 6 mps 755 mmHg 81%
    15:00 +7°C° 0.2 mm 6 mps 755 mmHg 79%
    16:00 +5°C° 0.1 mm 6 mps 756 mmHg 80%
    17:00 +5°C° 0.1 mm 6 mps 757 mmHg 82%
    18:00 +4°C° 0.1 mm 6 mps 757 mmHg 83%
    19:00 +4°C° 0 mm 6 mps 758 mmHg 83%
    20:00 +4°C° 0 mm 6 mps 759 mmHg 82%
    21:00 +4°C° 0 mm 6 mps 760 mmHg 82%
    22:00 +3°C° 0 mm 6 mps 760 mmHg 81%
    23:00 +3°C° 0 mm 5 mps 761 mmHg 81%

    27 October, Sunday

    Time Temperature Precipitation Wind Pressure Humidity
    00:00 +3°C° 0 mm 5 mps 762 mmHg 81%
    01:00 +3°C° 0 mm 5 mps 762 mmHg 82%
    02:00 +4°C° 0 mm 4 mps 763 mmHg 83%
    03:00 +4°C° 0 mm 4 mps 763 mmHg 85%
    04:00 +4°C° 0 mm 4 mps 764 mmHg 85%
    05:00 +3°C° 0 mm 3 mps 764 mmHg 86%
    06:00 +3°C° 0 mm 3 mps 765 mmHg 86%
    07:00 +5°C° 0 mm 2 mps 765 mmHg 85%
    08:00 +5°C° 0 mm 2 mps 766 mmHg 83%
    09:00 +6°C° 0 mm 2 mps 766 mmHg 82%
    10:00 +7°C° 0 mm 2 mps 766 mmHg 77%
    11:00 +8°C° 0 mm 3 mps 767 mmHg 73%
    12:00 +9°C° 0 mm 3 mps 767 mmHg 69%
    13:00 +9°C° 0 mm 3 mps 767 mmHg 70%
    14:00 +9°C° 0 mm 2 mps 767 mmHg 71%
    15:00 +8°C° 0 mm 2 mps 767 mmHg 72%
    16:00 +7°C° 0 mm 2 mps 767 mmHg 76%
    17:00 +6°C° 0 mm 2 mps 767 mmHg 80%
    18:00 +5°C° 0 mm 1 mps 767 mmHg 84%
    19:00 +5°C° 0 mm 1 mps 768 mmHg 84%
    20:00 +5°C° 0 mm 1 mps 768 mmHg 84%
    21:00 +4°C° 0 mm 1 mps 768 mmHg 83%
    22:00 +4°C° 0 mm 1 mps 768 mmHg 84%
    23:00 +4°C° 0 mm 1 mps 768 mmHg 85%
    Show more